Regional Weather Roundup
Issued by NWS State College, PA

Home | Current Version | Previous Version | Text Only | Print | Product List | Glossary On
Versions: 1 2 3 4 5 6 7 8 9 10 11 12 13 14 15 16 17 18 19 20 21 22 23 24 25 26 27 28 29 30 31 32 33 34 35 36 37 38 39 40 41 42 43 44 45 46 47 48 49 50
000
ASUS41 KCTP 040710
RWRCTP

REGIONAL WEATHER ROUNDUP
NATIONAL WEATHER SERVICE STATE COLLEGE PA
200 AM EST WED MAR 04 2015

Note: "fair" indicates few or no clouds below 12,000 feet with no
significant weather and/or obstructions to visibility.

* = STATION THAT DOES NOT REPORT PRECIPITATION /E.G. RAIN...SNOW...ETC/
    THUNDER OR FOG.

PAZ002>004-007>009-013>016-020>023-029>032-040800-
WESTERN PENNSYLVANIA

CITY           SKY/WX    TMP DP  RH WIND       PRES   REMARKS
ERIE           CLOUDY    35  31  85 W14G23    29.78R
MEADVILLE        N/A     35  31  85 W9G20     29.74S
FRANKLIN*      CLOUDY    36  32  87 W10G16    29.77R
NEW CASTLE     LGT RAIN  37  34  89 W9        29.79S
BEAVER COUNTY  NOT AVBL
BUTLER*        CLOUDY    39  36  87 W7        29.79S
PITTSBURGH INT LGT RAIN  41  38  89 W12       29.78S
PITTSBURGH     LGT RAIN  42  38  85 W6        29.76F
INDIANA*       CLOUDY    41  39  93 W6G14     29.79S FOG
LATROBE        LGT RAIN  45  45 100 SW7       29.80S
WASHINGTON CO* CLOUDY    43  39  87 W9        29.82R
$$

PAZ004>006-010>012-017>019-024>028-033>037-041-042-045-046-049>053-040800-
CENTRAL PENNSYLVANIA

CITY           SKY/WX    TMP DP  RH WIND       PRES   REMARKS
BRADFORD       CLOUDY    36  32  85 W9G23     29.70R FOG
DUBOIS         MIX PCPN  37  36  96 W14       29.72R FOG
CLEARFIELD     LGT RAIN  34  33  96 S6        29.73S FOG
JOHNSTOWN      LGT RAIN  42  41  96 W12       29.74S FOG
ALTOONA        LGT RAIN  33  31  92 S6        29.74F FOG
STATE COLLEGE  MIX PCPN  32  32  99 CALM      29.74S
WILLIAMSPORT   FRZ RAIN  30  27  88 CALM      29.76S
SELINSGROVE    CLOUDY    31  28  89 SW7       29.78F FOG
FT INDIANTOWN  CLOUDY    31  29  94 S2        29.80F FOG
CAPITAL CITY   CLOUDY    32  29  88 CALM      29.82S
HARRISBURG     CLOUDY    33  30  88 CALM      29.81F FOG
YORK           LGT RAIN  35  33  92 CALM      29.81S FOG
$$

PAZ038>040-043-044-047-048-054-055-060>062-067>071-040800-
EASTERN PENNSYLVANIA

CITY           SKY/WX    TMP DP  RH WIND       PRES   REMARKS
SCRANTON       CLOUDY    30  27  88 SW5       29.72F FOG
MOUNT POCONO   CLOUDY    30  28  92 W15       29.67F FOG
ALLENTOWN      SLEET     34  30  85 W8        29.79F
QUAKERTOWN*      N/A     32  32 100 CALM      29.80F
READING        CLOUDY    33  31  92 CALM      29.80F FOG
LANCASTER      CLOUDY    32  31  96 SW3       29.83R FOG
COATESVILLE    LGT RAIN  34  34 100 SW5       29.81F
POTTSTOWN      LGT RAIN  33  33 100 W8        29.82S
BLUE BELL      CLOUDY    36  34  93 CALM      29.80F
DOYLESTOWN     MIX PCPN  32  32 100 SW6       29.78F FOG
WILLOW GROVE   NOT AVBL
NORTH PHILA    CLOUDY    36  31  82 W8        29.84S HAZE
PHILADELPHIA   DRIZZLE   34  32  92 SW6       29.83F FOG
$$


USA.gov is the U.S. government's official web portal to all federal, state and local government web resources and services.